STARLINK-1187 (45219 NORAD) Tracking and Keplerian Element Data

This shows tracking and keplerian element data for the satellite.

Feedback or suggestion? Click here.




ElementValue
Catalog45219
NameSTARLINK-1187
Epoch Orbit2168
Epoch Day185.50001157
Epoch Year2020
RAAN322.466
Inclination53.0018
Eccentricity0.000192
Argument of Perigee102.8385
Mean Anonmoly275.2435
Mean Motion15.06270197
Decay Rate-0.00030619
L11 45219U 20012AT 20185.50001157 -.00030619 00000-0 -20526-2 0 9999
L22 45219 53.0018 322.4660 0001920 102.8385 275.2435 15.06270197 21685

Live tracking and technical data element details for STARLINK-1187 (NORAD 45219). STARLINK-1187 can be tracked NOW for your location showing map with azimuth and elevation plus other details from your city location.

Track the satellite on the map from your city or location and see movement details for azimuth, elevation, latitude, longitude, range, height, and movement on the map or in text.







IsCatalogInMostPopularTable: catalog: 45219, numindb: 26
Update: records affected: 1



GetName: 45219 STARLINK-1187

Hit Count: updated at: Fri, 03 Jul 2020 17:12:59 GMT